"Pseudo-MPEC" for P21vS24

Created 2022 Aug 25 14:22:31 UT using Find_Orb

Click here for an explanation of pseudo-MPECs

 
 Astrometry: 
     P21vS24* C2022 08 05UA0]SN%_/1x(FAstrometry;TbGYwredacted;%Qclickm7:R_$nF52
     P21vS24  C2022 08 05Q$D;here;Qj=VOA(bAC=*jP[o'N`u[FforS)*-FQ6@a?\Gc$jZ.4F52
     P21vS24  C2022 08 050C*kqDfRDt6G$CGJFy:@:4@w5)UZccnM,RexplanationrWw9du3F52
     P21vS24  C2022 08 05B7wjwC0q7Dl4Zuin9,b@lo9JFRhAeBdV?.rqQ)BB'4W;0/#aLwSAF52

Station data:
(F52) Pan-STARRS 2, Haleakala  (N20.707382 W156.255910)  US/Hawaii.
   Observers J. Bulger, T. Dukes, T. Lowe, A. Schultz, M. Willman. Measurers
   K. Chambers, S. Chastel, T. de Boer, L. Denneau, J. Fairlamb, H.
   Flewelling, M. Huber, C.-C. Lin, E. Magnier, Y. Ramanjooloo, R. Wainscoat,
   R. Weryk. 1.8-m Ritchey-Chrétien + CCD.

Orbital elements:  P21vS24
   Perihelion 2022 Jan 9.41914 +/- 269 TT = 10:03:33 (JD 2459588.91914)
Epoch 2022 Aug  6.0 TT = JDT 2459797.5   Earth MOID: 0.5922   Ma: 0.0280
M  77.90468916 +/- 70               (J2000 ecliptic)          AutoNEOCP
n   0.37349873 +/- 0.255            Peri.  213.87968 +/- 80
a   1.90960389 +/- 0.869            Node     7.01037 +/- 34
e   0.1788543 +/- 0.274             Incl.   22.51686 +/- 27
P   2.64/963.84d           H 19.2   G  0.15   U 11.8  SR
q 1.56806285 +/- 0.944    Q 2.25114493 +/- 29.4
From 4 observations 2022 Aug. 5 (38.5 min); mean residual 0".11
Residuals in arcseconds: 
220805 F52  .02-  .03+    220805 F52  .02-  .27-    
220805 F52  .04+  .09+    220805 F52  .00   .15+    

Ephemerides (geocentric):
Date (UTC) HH   RA             Dec           delta  r     elong  mag " sig PA
---- --------  ------------   ------------  ------ ------ -----  --- --------
2022 08 25 14  22 37 20.705   -40 07 56.39  0.9984 1.9419 150.2 21.5  32d  27
2022 08 25 15  22 37 15.640   -40 07 37.91  0.9985 1.9419 150.2 21.5  32d  27
2022 08 25 16  22 37 10.575   -40 07 19.38  0.9986 1.9420 150.2 21.5  32d  27
2022 08 25 17  22 37 05.512   -40 07 00.79  0.9987 1.9421 150.2 21.5  32d  27
2022 08 25 18  22 37 00.451   -40 06 42.15  0.9988 1.9422 150.2 21.5  32d  27
2022 08 25 19  22 36 55.390   -40 06 23.46  0.9989 1.9423 150.2 21.5  32d  27
2022 08 25 20  22 36 50.331   -40 06 04.71  0.9991 1.9424 150.2 21.5  32d  27
2022 08 25 21  22 36 45.272   -40 05 45.91  0.9992 1.9425 150.2 21.5  32d  27
2022 08 25 22  22 36 40.215   -40 05 27.05  0.9993 1.9426 150.2 21.5  32d  27
2022 08 25 23  22 36 35.160   -40 05 08.15  0.9994 1.9427 150.2 21.5  32d  27
2022 08 26 00  22 36 30.105   -40 04 49.19  0.9995 1.9428 150.2 21.5  32d  27
2022 08 26 01  22 36 25.052   -40 04 30.17  0.9996 1.9429 150.2 21.5  32d  27
2022 08 26 02  22 36 20.000   -40 04 11.11  0.9997 1.9429 150.2 21.5  32d  27
2022 08 26 03  22 36 14.949   -40 03 51.98  0.9998 1.9430 150.2 21.5  32d  27
2022 08 26 04  22 36 09.900   -40 03 32.81  0.9999 1.9431 150.2 21.5  32d  27
2022 08 26 05  22 36 04.852   -40 03 13.58  1.0001 1.9432 150.2 21.5  32d  27
2022 08 26 06  22 35 59.805   -40 02 54.30  1.0002 1.9433 150.2 21.5  32d  27
2022 08 26 07  22 35 54.760   -40 02 34.97  1.0003 1.9434 150.2 21.5  32d  27
2022 08 26 08  22 35 49.716   -40 02 15.58  1.0004 1.9435 150.2 21.5  32d  27
2022 08 26 09  22 35 44.673   -40 01 56.14  1.0005 1.9436 150.2 21.5  32d  27
2022 08 26 10  22 35 39.632   -40 01 36.65  1.0006 1.9437 150.2 21.5  32d  27
2022 08 26 11  22 35 34.592   -40 01 17.10  1.0007 1.9438 150.2 21.5  32d  27
2022 08 26 12  22 35 29.554   -40 00 57.50  1.0009 1.9439 150.2 21.5  32d  27
2022 08 26 13  22 35 24.517   -40 00 37.85  1.0010 1.9439 150.2 21.5  32d  27
2022 08 26 14  22 35 19.481   -40 00 18.14  1.0011 1.9440 150.2 21.5  32d  27
2022 08 26 15  22 35 14.447   -39 59 58.38  1.0012 1.9441 150.2 21.5  32d  27
2022 08 26 16  22 35 09.415   -39 59 38.57  1.0013 1.9442 150.2 21.5  32d  27
2022 08 26 17  22 35 04.384   -39 59 18.71  1.0014 1.9443 150.2 21.5  32d  27
2022 08 26 18  22 34 59.354   -39 58 58.79  1.0016 1.9444 150.2 21.5  32d  27
2022 08 26 19  22 34 54.326   -39 58 38.82  1.0017 1.9445 150.2 21.5  32d  27
2022 08 26 20  22 34 49.299   -39 58 18.79  1.0018 1.9446 150.2 21.5  32d  27
2022 08 26 21  22 34 44.274   -39 57 58.72  1.0019 1.9447 150.2 21.5  32d  27
2022 08 26 22  22 34 39.251   -39 57 38.59  1.0020 1.9448 150.2 21.5  32d  27
2022 08 26 23  22 34 34.229   -39 57 18.40  1.0022 1.9449 150.2 21.5  32d  27
2022 08 27 00  22 34 29.209   -39 56 58.17  1.0023 1.9449 150.2 21.5  32d  27
2022 08 27 01  22 34 24.190   -39 56 37.88  1.0024 1.9450 150.2 21.5  32d  27
2022 08 27 02  22 34 19.173   -39 56 17.54  1.0025 1.9451 150.2 21.5  33d  27
2022 08 27 03  22 34 14.157   -39 55 57.14  1.0026 1.9452 150.1 21.5  33d  27
2022 08 27 04  22 34 09.143   -39 55 36.69  1.0028 1.9453 150.1 21.5  33d  27
2022 08 27 05  22 34 04.131   -39 55 16.19  1.0029 1.9454 150.1 21.5  33d  27
2022 08 27 06  22 33 59.121   -39 54 55.64  1.0030 1.9455 150.1 21.5  33d  27
2022 08 27 07  22 33 54.112   -39 54 35.04  1.0031 1.9456 150.1 21.5  33d  27
2022 08 27 08  22 33 49.105   -39 54 14.38  1.0033 1.9457 150.1 21.5  33d  27
2022 08 27 09  22 33 44.099   -39 53 53.67  1.0034 1.9458 150.1 21.5  33d  27
2022 08 27 10  22 33 39.095   -39 53 32.90  1.0035 1.9458 150.1 21.5  33d  27
2022 08 27 11  22 33 34.093   -39 53 12.09  1.0036 1.9459 150.1 21.5  33d  27
2022 08 27 12  22 33 29.093   -39 52 51.22  1.0037 1.9460 150.1 21.5  33d  27
2022 08 27 13  22 33 24.094   -39 52 30.30  1.0039 1.9461 150.1 21.5  33d  27